Ashland, WI

10:50 AM CST on December 10, 2019 (GMT -0600)
Kennedy Memorial

Weather History for KASX - October, 2019

Change the Weather History Date:

Monday, October 21, 2019

  Actual Average Record
Temperature  
Mean Temperature 45 °F 43 °F  
Max Temperature 50 °F 52 °F 81 °F (1953)
Min Temperature 39 °F 32 °F 16 °F (1930)
Degree Days  
Heating Degree Days 20 22  
Month to date heating degree days 373 392  
Since 1 July heating degree days 662 799  
Cooling Degree Days 0 0  
Month to date cooling degree days 0 0  
Year to date cooling degree days 253 237  
Moisture  
Dew Point 44 °F    
Average Humidity 88    
Maximum Humidity 100    
Minimum Humidity 76    
Precipitation  
Precipitation 0.39 in - 0.91 in (2009)
Sea Level Pressure  
Sea Level Pressure 29.43 in    
Wind  
Wind Speed 10 mph (ENE)    
Max Wind Speed 31 mph    
Max Gust Speed 43 mph    
Visibility 6 miles    
Events Fog , Rain    
T = Trace of Precipitation, MM = Missing Value Source: NWS Daily Summary

Daily Weather History Graph

Daily Weather History Graph

Search for Another Location

Airport or City:

Astronomy

Oct. 21, 2019 Rise Set
Actual Time 7:29 AM CDT 6:06 PM CDT
Civil Twilight 6:58 AM CDT 6:37 PM CDT
Nautical Twilight 6:23 AM CDT 7:12 PM CDT
Astronomical Twilight 5:48 AM CDT 7:47 PM CDT
Moon No Moon Rise 3:00 PM CDT (10/21)
Length of Visible Light 11h 38m
Length of Day
10h 37m
Waning Gibbous, 48% of the Moon is Illuminated
Oct 21
Waning Gibbous
Oct 27
New
Nov 4
First Quarter
Nov 12
Full
Nov 19
Last Quarter

Hourly Weather History & Observations

Time (CDT) Temp. Windchill Dew Point Humidity Pressure Visibility Wind Dir Wind Speed Gust Speed Precip Events Conditions
12:53 AM 41.0 °F - 39.0 °F 93% 29.91 in 10.0 mi Calm Calm - N/A   Clear
1:07 AM 39.0 °F 36.8 °F 39.0 °F 100% 29.89 in 0.8 mi NE 3.5 mph - N/A   Clear
1:18 AM 41.0 °F - 39.9 °F 96% 29.89 in 2.5 mi Calm Calm - N/A   Clear
1:25 AM 42.1 °F - 41.0 °F 96% 29.89 in 10.0 mi Calm Calm - N/A   Clear
1:53 AM 42.1 °F 40.2 °F 39.9 °F 92% 29.88 in 10.0 mi NE 3.5 mph - N/A   Clear
2:53 AM 43.0 °F 39.5 °F 41.0 °F 93% 29.83 in 10.0 mi NE 5.8 mph - N/A   Clear
3:53 AM 42.1 °F 39.2 °F 41.0 °F 96% 29.83 in 10.0 mi NNE 4.6 mph - N/A   Clear
4:53 AM 42.1 °F 38.4 °F 39.0 °F 89% 29.82 in 10.0 mi ENE 5.8 mph - N/A   Clear
5:53 AM 45.0 °F 40.1 °F 39.0 °F 80% 29.78 in 10.0 mi NE 9.2 mph - N/A   Clear
6:53 AM 45.0 °F 40.1 °F 37.9 °F 76% 29.75 in 10.0 mi ENE 9.2 mph - N/A   Clear
7:53 AM 46.0 °F 41.4 °F 39.0 °F 76% 29.72 in 10.0 mi NNE 9.2 mph - N/A   Clear
8:53 AM 46.9 °F - 39.9 °F 77% 29.67 in 10.0 mi NE 12.7 mph - N/A   Scattered Clouds
9:53 AM 48.0 °F - 43.0 °F 83% 29.61 in 10.0 mi NE 10.4 mph - N/A   Scattered Clouds
10:03 AM 48.9 °F - 43.0 °F 80% 29.58 in 10.0 mi NE 12.7 mph 21.9 mph N/A   Mostly Cloudy
10:53 AM 48.9 °F - 45.0 °F 86% 29.56 in 10.0 mi NE 18.4 mph - N/A   Overcast
11:53 AM 48.9 °F - 46.0 °F 90% 29.49 in 8.0 mi NE 18.4 mph 31.1 mph 0.00 in Rain Light Rain
12:53 PM 48.0 °F - 45.0 °F 89% 29.43 in 6.0 mi NE 20.7 mph 33.4 mph 0.01 in Rain Light Rain
1:36 PM 48.0 °F - 45.0 °F 89% 29.36 in 7.0 mi ENE 23.0 mph 34.5 mph 0.03 in Rain Light Rain
1:53 PM 46.9 °F - 45.0 °F 93% 29.36 in 4.0 mi ENE 21.9 mph 35.7 mph 0.05 in Rain Rain
2:05 PM 46.9 °F - 45.0 °F 93% 29.32 in 2.5 mi ENE 27.6 mph 43.7 mph 0.04 in Rain Rain
2:10 PM 46.9 °F - 45.0 °F 93% 29.31 in 4.0 mi ENE 24.2 mph 43.7 mph 0.06 in Rain Rain
2:18 PM 46.9 °F - 45.0 °F 93% 29.31 in 2.5 mi NE 24.2 mph 34.5 mph 0.08 in Rain Rain
2:36 PM 46.9 °F - 45.0 °F 93% 29.28 in 3.0 mi NE 31.1 mph 40.3 mph 0.12 in Rain Rain
2:53 PM 46.9 °F - 46.0 °F 97% 29.28 in 2.5 mi NE 23.0 mph 38.0 mph 0.16 in Rain Rain
3:20 PM 46.9 °F - 46.0 °F 97% 29.26 in 1.8 mi ENE 19.6 mph 38.0 mph 0.10 in Rain Heavy Rain
3:27 PM 48.0 °F - 46.0 °F 93% 29.25 in 2.0 mi ENE 21.9 mph 38.0 mph 0.12 in Rain Heavy Rain
3:51 PM 48.2 °F - 46.4 °F 93% 29.23 in 5.0 mi NE 20.7 mph 33.4 mph 0.17 in Rain Light Rain
3:53 PM 48.0 °F - 46.0 °F 93% 29.25 in 7.0 mi ENE 21.9 mph 33.4 mph 0.17 in Rain Light Rain
4:25 PM 48.0 °F - 46.9 °F 96% 29.21 in 8.0 mi NE 12.7 mph 24.2 mph 0.00 in   Overcast
4:50 PM 48.2 °F - 46.4 °F 93% 29.21 in 10.0 mi ENE 9.2 mph - 0.00 in   Overcast
4:53 PM 48.0 °F - 46.9 °F 96% 29.23 in 10.0 mi ENE 11.5 mph - 0.00 in   Overcast
5:53 PM 48.9 °F - 48.0 °F 97% 29.22 in 10.0 mi East 8.1 mph - N/A   Overcast
6:18 PM 48.9 °F - 48.0 °F 97% 29.21 in 10.0 mi East 4.6 mph - N/A   Overcast
6:31 PM 46.9 °F - 46.0 °F 97% 29.21 in 9.0 mi East 4.6 mph - N/A   Mostly Cloudy
6:44 PM 45.0 °F - 45.0 °F 100% 29.21 in 1.5 mi Calm Calm - N/A   Scattered Clouds
6:53 PM 44.1 °F 42.5 °F 43.0 °F 96% 29.23 in 0.5 mi WNW 3.5 mph - N/A Fog Fog
7:13 PM 45.0 °F - 45.0 °F 100% 29.21 in 0.2 mi Calm Calm - N/A Fog Fog
7:53 PM 44.1 °F 42.5 °F 43.0 °F 96% 29.22 in 0.2 mi NE 3.5 mph - N/A Fog Fog
8:10 PM 42.1 °F 38.4 °F 42.1 °F 100% 29.20 in 0.2 mi WNW 5.8 mph - N/A Fog Fog
8:44 PM 46.0 °F - 45.0 °F 96% 29.22 in 0.2 mi North - - N/A Fog Fog
8:49 PM 48.2 °F - 46.4 °F 93% 29.22 in 1.0 mi South 8.1 mph 18.4 mph N/A   Overcast
8:53 PM 48.0 °F - 46.9 °F 96% 29.23 in 8.0 mi South 8.1 mph 18.4 mph N/A   Overcast
9:53 PM 48.0 °F - 46.0 °F 93% 29.24 in 10.0 mi SSE 4.6 mph - 0.00 in   Overcast
10:53 PM 46.9 °F - 45.0 °F 93% 29.23 in 10.0 mi South 4.6 mph - N/A   Mostly Cloudy
11:53 PM 46.9 °F - 44.1 °F 90% 29.23 in 10.0 mi SSE 5.8 mph - N/A   Overcast